Weather in Zamostye

Russia / Novgorod Oblast     58°49′56″N   32°56′17″E
temp.,
°C
wind,
m/s
gust,
m/s
humid.,
%
clouds,
%
prec.,
mm/h
press.,
hPa
HPBL,
m
9 may, sun
sun900:00+1wnw399732 0.0 1009351
03:00+3nw3108935 0.0 1010589
06:000wnw310945 0.0 1012329
09:00+7wnw48610 0.0 1014734
12:00+10wnw57395 0.0 10152174
15:00+11nw583478 0.0 10172687
18:00+11nw36391 0.0 10192034
21:00+5sw11605 0.0 102110
10 may, mon
mon1000:00+3ssw236831 0.0 102338
03:00+3s3875100 0.0 1024129
06:00+6s4126685 0.0 1024414
09:00+9ssw51063100 0.1 10241061
12:00+10ssw61160100 0.1 1024755
15:00+15ssw585399 0.1 1024995
18:00+16ssw476075 0.0 10241098
21:00+10s311835 0.0 1026249
11 may, tue
tue1100:00+11ssw41377100 0.0 1027373
03:00+9ssw31283100 0.0 1028295
06:00+9ssw3108459 0.0 1028279
09:00+15ssw475913 0.0 1028580
12:00+19ssw464762 0.0 10281256
15:00+21ssw464285 0.0 10281510
18:00+20s355028 0.0 10271359
21:00+13sse377812 0.0 1027132
12 may, wed
wed1200:00+11sse310836 0.0 1028181
03:00+9sse26835 0.0 102898
06:00+9se25815 0.0 1028134
09:00+15ese34545 0.0 1027465
12:00+19se454021 0.0 10271088
15:00+21ese46325 0.0 10251423
18:00+20ese47420 0.0 10241079
21:00+14ese312755 0.0 1024301
13 may, thu
thu1300:00+12ese310940 0.0 1024243
03:00+11ese23986 0.0 102472
06:00+12e279597 0.0 1023191
09:00+18ese5107266 0.1 1021729
12:00+18ese5971100 0.0 1020875
15:00+22ese51056100 0.9 10181964
18:00+19se4106941 0.9 10161309
21:00+14se259459 1.3 1016146